Date,TemperatureHighF,TemperatureAvgF,TemperatureLowF,DewpointHighF,DewpointAvgF,DewpointLowF,HumidityHigh,HumidityAvg,HumidityLow,PressureMaxIn,PressureMinIn,WindSpeedMaxMPH,WindSpeedAvgMPH,GustSpeedMaxMPH,PrecipitationSumIn
2013-4-1,72.0,55.1,41.0,50.0,44.2,40.0,98,71,38,30.15,29.95,5,0,10,0.01
2013-4-2,53.0,46.6,40.0,41.0,33.0,27.0,91,61,41,30.28,30.12,7,2,14,0.18
2013-4-3,50.0,45.3,40.0,38.0,31.3,24.0,85,59,40,30.24,30.14,8,2,15,0.23
2013-4-4,49.0,44.9,41.0,46.0,41.4,30.0,96,89,48,30.14,29.99,3,0,9,0.42
2013-4-5,73.0,54.7,43.0,47.0,41.2,34.0,97,68,26,30.19,30.06,3,0,8,0.10
2013-4-6,77.0,59.4,42.0,46.0,40.7,33.0,96,58,22,30.13,29.95,4,1,11,0.00
2013-4-7,73.0,63.4,56.0,57.0,50.8,43.0,85,65,47,30.07,29.94,3,1,9,0.00
2013-4-8,81.0,68.6,56.0,60.0,56.2,51.0,83,66,42,30.02,29.89,3,1,12,0.00
2013-4-9,83.0,73.5,65.0,67.0,63.6,58.0,85,72,56,30.03,29.90,3,1,9,0.00
2013-4-10,86.0,77.4,71.0,67.0,65.2,62.0,83,67,48,29.98,29.71,4,1,12,0.01
2013-4-11,75.0,56.3,44.0,67.0,53.4,42.0,95,90,69,29.83,29.72,3,0,12,2.52
2013-4-12,70.0,53.7,38.0,48.0,42.7,37.0,98,72,38,30.02,29.83,4,0,13,0.01
2013-4-13,78.0,58.7,43.0,49.0,42.9,38.0,95,62,25,30.13,29.95,3,0,9,0.00
2013-4-14,70.0,61.1,52.0,56.0,51.6,46.0,88,72,53,29.95,29.78,4,1,11,0.00
2013-4-15,85.0,68.7,56.0,63.0,58.6,53.0,93,73,42,29.96,29.84,3,1,8,0.00
2013-4-16,87.0,76.8,68.0,71.0,68.4,63.0,89,76,56,30.08,29.94,3,1,8,0.00
2013-4-17,89.0,77.6,67.0,72.0,68.1,65.0,96,74,48,30.11,29.88,3,1,10,0.00
2013-4-18,82.0,71.3,47.0,68.0,61.8,43.0,93,74,50,29.89,29.62,3,1,16,1.73
2013-4-19,58.0,47.5,41.0,44.0,35.7,32.0,92,65,41,30.16,29.87,3,1,11,1.74
2013-4-20,73.0,54.1,36.0,45.0,37.4,32.0,97,61,24,30.28,30.16,2,0,9,0.00
2013-4-21,71.0,57.6,42.0,43.0,37.9,32.0,86,52,24,30.37,30.20,5,1,11,0.00
2013-4-22,79.0,61.5,43.0,52.0,45.7,41.0,95,61,33,30.23,30.04,3,0,8,0.00
2013-4-23,66.0,59.8,55.0,60.0,55.1,51.0,88,85,80,30.09,30.03,1,0,6,0.00
2013-4-24,53.0,45.1,40.0,41.0,40.1,38.0,94,83,64,30.32,30.24,1,0,3,1.08
2013-4-25,73.0,53.0,35.0,45.0,39.2,34.0,97,67,27,30.41,30.30,2,0,5,0.03
2013-4-26,69.0,55.4,47.0,52.0,46.1,41.0,89,73,37,30.44,30.24,4,1,11,0.09
2013-4-27,75.0,62.4,53.0,67.0,58.3,49.0,95,86,75,30.25,29.90,3,0,8,0.28
2013-4-28,72.0,62.3,52.0,60.0,55.4,49.0,94,79,55,30.00,29.95,2,0,6,0.06
2013-4-29,84.0,64.4,46.0,59.0,53.3,45.0,98,72,37,30.04,29.90,1,0,4,0.00
2013-4-30,86.0,69.1,51.0,61.0,54.7,50.0,97,65,34,29.99,29.91,3,0,6,0.00